Погода в Зимниках

Россия / Приморский край     45°28′26″N   134°15′31″E
темп.,
°C
ветер,
м/с
пор.,
м/с
влажн.,
%
обл.,
%
осадки,
мм/ч
давл.,
гПа
погр.,
м
18 апреля, вс
вс1801:00+4зюз007236 0.0 101210
04:00+2с118331 0.0 101010
07:00+2ссз228833 0.0 101056
10:00+8с365916 0.0 1009829
13:00+12ссз56405 0.0 10061584
16:00+13с573299 0.0 10042216
19:00+11ссз594298 0.0 10031311
22:00+8ссз412514 0.0 1004549
19 апреля, пн
пн1901:00+6сз39630 0.0 1004230
04:00+5зсз217298 0.0 100319
07:00+5з127198 0.0 100342
10:00+11ссз474838 0.0 10031289
13:00+15сз583614 0.0 10012231
16:00+16сз610285 0.0 9992405
19:00+15зсз49334 0.0 1000731
22:00+10юз224897 0.0 100132
20 апреля, вт
вт2001:00+6сз51254100 0.0 10061065
04:00+2сз612390 0.0 10111211
07:00−1зсз615330 0.0 10131283
10:00+4зсз817250 0.0 10132008
13:00+8зсз925201 0.0 10123273
16:00+10сз820170 0.0 10123080
19:00+7сз616200 0.0 10152106
22:00+3з26290 0.0 1018114
21 апреля, ср
ср2101:00+1зюз22350 0.0 102034
04:000юз22394 0.0 102026
07:00+1ююз21380 0.0 102134
10:00+12з25230 0.0 1020737
13:00+17зсз36210 0.0 10191502
16:00+19зсз46210 0.0 10171817
19:00+15з35320 0.0 1018155
22:00+10зюз11370 0.0 102010
22 апреля, чт
чт2201:00+8ю11443 0.0 102110
04:00+6ююв11484 0.0 102110
07:00+7юв11504 0.0 102211
10:00+17юв11296 0.0 1022396
13:00+23св112025 0.0 10211178
16:00+23ссв1117100 0.0 10191853
19:00+19ссв1128100 0.0 101911
22:00+14з2339100 0.0 102247